• en France
  • Liste des pays
  • À 7 jours
  • Température de l'eau
  • Carte satellitaire
  • Carte météo
  • Widgets météo
  • user-avatar
    Se connecter

    Météo par heure à Nikoncy

    Ce jour, 26 Septembre, Mercredi

    Heure Température Précipitation Vent Pression Humidité
    00:00 +2°C° 0 mm 3 m/s 751 mmHg 81%
    01:00 +1°C° 0 mm 3 m/s 752 mmHg 82%
    02:00 +1°C° 0 mm 3 m/s 752 mmHg 83%
    03:00 +1°C° 0 mm 3 m/s 752 mmHg 85%
    04:00 0°C° 0 mm 3 m/s 753 mmHg 88%
    05:00 +1°C° 0 mm 2 m/s 753 mmHg 90%
    06:00 +1°C° 0 mm 3 m/s 753 mmHg 87%
    07:00 +2°C° 0 mm 3 m/s 753 mmHg 84%
    08:00 +3°C° 0 mm 3 m/s 753 mmHg 82%
    09:00 +5°C° 0 mm 4 m/s 753 mmHg 74%
    10:00 +7°C° 0 mm 4 m/s 753 mmHg 67%
    11:00 +10°C° 0 mm 4 m/s 753 mmHg 60%
    12:00 +9°C° 0 mm 5 m/s 752 mmHg 58%
    13:00 +10°C° 0 mm 5 m/s 752 mmHg 57%
    14:00 +11°C° 0 mm 6 m/s 751 mmHg 56%
    15:00 +10°C° 0 mm 6 m/s 750 mmHg 61%
    16:00 +9°C° 0 mm 6 m/s 749 mmHg 66%
    17:00 +8°C° 0 mm 5 m/s 749 mmHg 72%
    18:00 +7°C° 0.6 mm 6 m/s 748 mmHg 76%
    19:00 +6°C° 0.6 mm 7 m/s 747 mmHg 81%
    20:00 +5°C° 0.6 mm 7 m/s 746 mmHg 85%
    21:00 +5°C° 1.3 mm 8 m/s 745 mmHg 86%
    22:00 +4°C° 1.3 mm 8 m/s 744 mmHg 88%
    23:00 +4°C° 1.3 mm 8 m/s 743 mmHg 89%

    Demain, 27 Septembre, Jeudi

    Heure Température Précipitation Vent Pression Humidité
    00:00 +5°C° 0.7 mm 8 m/s 742 mmHg 89%
    01:00 +5°C° 0.7 mm 8 m/s 741 mmHg 89%
    02:00 +5°C° 0.7 mm 8 m/s 740 mmHg 90%
    03:00 +6°C° 0.8 mm 7 m/s 740 mmHg 91%
    04:00 +6°C° 0.8 mm 7 m/s 739 mmHg 91%
    05:00 +6°C° 0.8 mm 7 m/s 739 mmHg 92%
    06:00 +8°C° 0.4 mm 6 m/s 739 mmHg 90%
    07:00 +8°C° 0.4 mm 5 m/s 740 mmHg 88%
    08:00 +10°C° 0.4 mm 4 m/s 740 mmHg 86%
    09:00 +9°C° 0 mm 5 m/s 740 mmHg 76%
    10:00 +10°C° 0 mm 6 m/s 741 mmHg 67%
    11:00 +11°C° 0 mm 7 m/s 741 mmHg 57%
    12:00 +12°C° 0 mm 7 m/s 741 mmHg 56%
    13:00 +12°C° 0 mm 7 m/s 741 mmHg 54%
    14:00 +12°C° 0 mm 7 m/s 741 mmHg 52%
    15:00 +13°C° 0 mm 6 m/s 742 mmHg 57%
    16:00 +12°C° 0 mm 5 m/s 742 mmHg 61%
    17:00 +11°C° 0 mm 4 m/s 742 mmHg 66%
    18:00 +10°C° 0 mm 4 m/s 742 mmHg 68%
    19:00 +8°C° 0 mm 4 m/s 742 mmHg 70%
    20:00 +7°C° 0 mm 4 m/s 743 mmHg 71%
    21:00 +8°C° 0 mm 4 m/s 742 mmHg 73%
    22:00 +8°C° 0 mm 4 m/s 742 mmHg 75%
    23:00 +8°C° 0 mm 5 m/s 741 mmHg 78%

    Après-demain, 28 Septembre, Vendredi

    Heure Température Précipitation Vent Pression Humidité
    00:00 +9°C° 0.1 mm 6 m/s 740 mmHg 80%
    01:00 +10°C° 0.1 mm 6 m/s 739 mmHg 83%
    02:00 +10°C° 0.1 mm 7 m/s 738 mmHg 85%
    03:00 +11°C° 0.2 mm 8 m/s 737 mmHg 85%
    04:00 +12°C° 0.2 mm 8 m/s 736 mmHg 86%
    05:00 +12°C° 0.2 mm 8 m/s 735 mmHg 86%
    06:00 +12°C° 0.7 mm 8 m/s 735 mmHg 86%
    07:00 +12°C° 0.7 mm 8 m/s 735 mmHg 86%
    08:00 +12°C° 0.7 mm 8 m/s 735 mmHg 87%
    09:00 +12°C° 0.4 mm 8 m/s 736 mmHg 82%
    10:00 +12°C° 0.4 mm 8 m/s 736 mmHg 78%
    11:00 +12°C° 0.4 mm 8 m/s 737 mmHg 73%
    12:00 +11°C° 0.1 mm 7 m/s 738 mmHg 72%
    13:00 +10°C° 0.1 mm 6 m/s 739 mmHg 70%
    14:00 +9°C° 0.1 mm 5 m/s 740 mmHg 69%
    15:00 +10°C° 0 mm 4 m/s 741 mmHg 70%
    16:00 +9°C° 0 mm 3 m/s 741 mmHg 72%
    17:00 +9°C° 0 mm 2 m/s 742 mmHg 73%
    18:00 +8°C° 0 mm 2 m/s 742 mmHg 77%
    19:00 +7°C° 0 mm 2 m/s 743 mmHg 80%
    20:00 +6°C° 0 mm 2 m/s 743 mmHg 83%
    21:00 +6°C° 0 mm 2 m/s 744 mmHg 85%
    22:00 +5°C° 0 mm 2 m/s 744 mmHg 87%
    23:00 +5°C° 0 mm 2 m/s 745 mmHg 88%

    29 Septembre, Samedi

    Heure Température Précipitation Vent Pression Humidité
    00:00 +4°C° 0 mm 2 m/s 745 mmHg 91%
    01:00 +4°C° 0 mm 2 m/s 746 mmHg 93%
    02:00 +5°C° 0 mm 1 m/s 746 mmHg 95%
    03:00 +4°C° 0 mm 1 m/s 746 mmHg 95%
    04:00 +4°C° 0 mm 1 m/s 747 mmHg 95%
    05:00 +4°C° 0 mm 1 m/s 747 mmHg 96%
    06:00 +5°C° 0 mm 1 m/s 747 mmHg 91%
    07:00 +6°C° 0 mm 1 m/s 748 mmHg 87%
    08:00 +6°C° 0 mm 0 m/s 748 mmHg 83%
    09:00 +8°C° 0 mm 1 m/s 749 mmHg 75%
    10:00 +9°C° 0 mm 1 m/s 749 mmHg 68%
    11:00 +11°C° 0 mm 1 m/s 750 mmHg 60%
    12:00 +11°C° 0 mm 1 m/s 750 mmHg 57%
    13:00 +10°C° 0 mm 2 m/s 750 mmHg 55%
    14:00 +12°C° 0 mm 2 m/s 750 mmHg 52%
    15:00 +10°C° 0 mm 2 m/s 750 mmHg 57%
    16:00 +10°C° 0 mm 1 m/s 750 mmHg 61%
    17:00 +9°C° 0 mm 1 m/s 750 mmHg 66%
    18:00 +7°C° 0 mm 1 m/s 751 mmHg 69%
    19:00 +6°C° 0 mm 1 m/s 751 mmHg 73%
    20:00 +5°C° 0 mm 1 m/s 752 mmHg 76%
    21:00 +5°C° 0 mm 1 m/s 752 mmHg 78%
    22:00 +4°C° 0 mm 1 m/s 752 mmHg 80%
    23:00 +3°C° 0 mm 0 m/s 753 mmHg 82%

    30 Septembre, Dimanche

    Heure Température Précipitation Vent Pression Humidité
    00:00 +2°C° 0 mm 0 m/s 753 mmHg 83%
    01:00 +2°C° 0 mm 0 m/s 753 mmHg 84%
    02:00 +2°C° 0 mm 0 m/s 753 mmHg 85%
    03:00 +2°C° 0 mm 0 m/s 753 mmHg 86%
    04:00 +3°C° 0 mm 1 m/s 753 mmHg 86%
    05:00 +3°C° 0 mm 1 m/s 753 mmHg 86%
    06:00 +4°C° 0 mm 1 m/s 753 mmHg 82%
    07:00 +4°C° 0 mm 2 m/s 753 mmHg 79%
    08:00 +4°C° 0 mm 2 m/s 753 mmHg 76%
    09:00 +6°C° 0 mm 2 m/s 753 mmHg 70%
    10:00 +8°C° 0 mm 3 m/s 753 mmHg 64%
    11:00 +9°C° 0 mm 3 m/s 753 mmHg 59%
    12:00 +10°C° 0 mm 4 m/s 752 mmHg 56%
    13:00 +10°C° 0 mm 4 m/s 752 mmHg 53%
    14:00 +10°C° 0 mm 4 m/s 752 mmHg 51%
    15:00 +10°C° 0 mm 3 m/s 751 mmHg 56%
    16:00 +9°C° 0 mm 3 m/s 751 mmHg 61%
    17:00 +8°C° 0 mm 2 m/s 751 mmHg 67%
    18:00 +7°C° 0 mm 2 m/s 751 mmHg 69%
    19:00 +5°C° 0 mm 3 m/s 751 mmHg 72%
    20:00 +4°C° 0 mm 3 m/s 751 mmHg 75%
    21:00 +4°C° 0 mm 3 m/s 750 mmHg 75%
    22:00 +4°C° 0 mm 3 m/s 750 mmHg 75%
    23:00 +4°C° 0 mm 3 m/s 750 mmHg 75%

    1 Octobre, Lundi

    Heure Température Précipitation Vent Pression Humidité
    00:00 +4°C° 0 mm 3 m/s 750 mmHg 76%
    01:00 +3°C° 0 mm 3 m/s 750 mmHg 77%
    02:00 +3°C° 0 mm 3 m/s 750 mmHg 77%
    03:00 +3°C° 0 mm 3 m/s 749 mmHg 78%
    04:00 +3°C° 0 mm 3 m/s 749 mmHg 78%
    05:00 +3°C° 0 mm 3 m/s 749 mmHg 79%
    06:00 +4°C° 0 mm 3 m/s 749 mmHg 76%
    07:00 +4°C° 0 mm 3 m/s 749 mmHg 74%
    08:00 +5°C° 0 mm 4 m/s 749 mmHg 71%
    09:00 +7°C° 0 mm 4 m/s 749 mmHg 67%
    10:00 +8°C° 0 mm 4 m/s 749 mmHg 63%
    11:00 +11°C° 0 mm 4 m/s 748 mmHg 58%
    12:00 +11°C° 0 mm 4 m/s 748 mmHg 57%
    13:00 +12°C° 0 mm 4 m/s 748 mmHg 56%
    14:00 +12°C° 0 mm 4 m/s 748 mmHg 54%
    15:00 +11°C° 0 mm 3 m/s 747 mmHg 60%
    16:00 +10°C° 0 mm 3 m/s 747 mmHg 65%
    17:00 +9°C° 0 mm 2 m/s 747 mmHg 71%
    18:00 +8°C° 0 mm 2 m/s 747 mmHg 74%
    19:00 +7°C° 0 mm 2 m/s 747 mmHg 77%
    20:00 +6°C° 0 mm 2 m/s 747 mmHg 79%
    21:00 +6°C° 0 mm 2 m/s 747 mmHg 80%
    22:00 +5°C° 0 mm 2 m/s 747 mmHg 81%
    23:00 +5°C° 0 mm 2 m/s 747 mmHg 81%
    Voir plus